SCP
0 0 0 0 1 2 3 3 2 2 2 1 1 1 0 0 0 0 0 0 0 0 0 0 0 0 0 0 0 0 0 0 0 0 0 0 0 0 0 0 0 0 0
0 0 0 1 2 2 2 2 2 2 1 1 1 0 0 0 0 0 0 0 0 0 0 0 0 0 0 0 0 0 0 0 0 0 0 0 0 0 0 0 0 0 0
0 0 0 0 1 1 1 1 1 1 1 0 0 0 0 0 0 0 0 0 0 0 0 0 0 0 0 0 0 0 0 0 0 0 0 0 0 0 0 0 0 0 0
0 0 0 0 0 0 0 0 0 0 0 0 0 0 0 0 0 0 0 0 0 0 0 0 0 0 0 0 0 0 0 0 0 0 0 0 0 0 0 0 0 0 0
0 0 0 0 0 0 0 0 0 0 0 0 0 0 0 0 0 0 0 0 0 0 0 0 0 0 0 0 0 0 0 0 0 0 0 0 0 0 0 0 0 0 0
0 0 0 0 0 0 0 0 0 0 0 0 0 0 0 0 0 0 0 0 0 0 0 0 0 0 0 0 0 0 0 0 0 0 0 0 0 0 0 0 0 0 0
0 0 0 0 0 0 0 0 0 0 0 0 0 0 0 0 0 0 0 0 0 0 0 0 0 0 0 0 0 0 0 0 0 0 0 0 0 0 0 0 0 0 0
0 0 0 0 0 0 0 0 0 0 0 0 0 0 0 0 0 0 0 0 0 0 0 0 0 0 0 0 0 0 0 0 0 0 0 0 0 0 0 0 0 0 0
0 0 0 0 0 0 0 0 0 0 0 0 0 0 0 0 0 0 0 0 0 0 0 0 0 0 0 0 0 0 0 0 0 0 0 0 0 0 0 0 0 0 0
0 0 0 0 0 0 0 0 0 0 0 0 0 0 0 0 0 0 0 0 0 0 0 0 0 0 0 0 0 0 0 0 0 0 0 0 0 0 0 0 0 0 0
0 0 0 0 0 0 0 0 0 0 0 0 0 0 0 0 0 0 0 0 0 0 0 0 0 0 0 0 0 0 0 0 0 0 0 0 0 0 0 0 0 0 0
0 0 0 0 0 0 0 0 0 0 0 0 0 0 0 0 0 0 0 0 0 0 0 0 0 0 0 0 0 0 0 0 0 0 0 0 0 0 0 0 0 0 0
0 0 0 0 0 0 0 0 0 0 0 0 0 0 0 0 0 0 0 0 0 0 0 0 0 0 0 0 0 0 0 0 0 0 0 0 0 0 0 0 0 0 0
0 0 0 0 0 0 0 0 0 0 0 0 0 0 0 0 0 0 0 0 0 0 0 0 0 0 0 0 0 0 0 0 0 0 0 0 0 0 0 0 0 0 0
0 0 0 0 0 0 0 0 0 0 0 0 0 0 0 0 0 0 0 0 0 0 0 0 0 0 0 0 0 0 0 0 0 0 0 0 0 0 0 0 0 0 0
0 0 0 0 0 0 0 0 0 0 0 0 0 0 0 0 0 0 0 0 0 0 0 0 0 0 0 0 0 0 0 0 0 0 0 0 0 0 0 0 0 0 0
0 0 0 0 0 0 0 0 0 0 0 0 0 0 0 0 0 0 0 0 0 0 0 0 0 0 0 0 0 0 0 0 0 0 0 0 0 0 0 0 0 0 0
0 0 0 0 0 0 0 0 0 0 0 0 0 0 0 0 0 0 0 0 0 0 0 0 0 0 0 0 0 0 0 0 0 0 0 0 0 0 0 0 0 0 0
0 0 0 0 0 0 0 0 0 0 0 0 0 0 0 0 0 0 0 0 0 0 0 0 0 0 0 0 0 0 0 0 0 0 0 0 0 0 0 0 0 0 0
0 0 0 0 0 0 0 0 0 0 0 0 0 0 0 0 0 0 0 0 0 0 0 0 0 0 0 0 0 0 0 0 0 0 0 0 0 0 0 0 0 0 0
0 0 0 0 0 0 0 0 0 0 0 0 0 0 0 0 0 0 0 0 0 0 0 0 0 0 0 0 0 0 0 0 0 0 0 0 0 0 0 0 0 0 0
0 0 0 0 0 0 0 0 0 0 0 0 0 0 0 0 0 0 0 0 0 0 0 0 0 0 0 0 0 0 0 0 0 0 0 0 0 0 0 0 0 0 0
0 0 0 0 0 0 0 0 0 0 0 0 0 0 0 0 0 0 0 0 0 0 0 0 0 0 0 0 0 0 0 0 0 0 0 0 0 0 0 0 0 0 0
0 0 0 0 0 0 0 0 0 0 0 0 0 0 0 0 0 0 0 0 0 0 0 0 0 0 0 0 0 0 0 0 0 0 0 0 0 0 0 0 0 0 0
0 0 0 0 0 0 0 0 0 0 0 0 0 0 0 0 0 0 0 0 0 0 0 0 0 0 0 0 0 0 0 0 0 0 0 0 0 0 0 0 0 0 0
0 0 0 0 0 0 0 0 0 0 0 0 0 0 0 0 0 0 0 0 0 0 0 0 0 0 0 0 0 0 0 0 0 0 0 0 0 0 0 0 0 0 0
Wind_Speed
4 4 3 3 3 3 3 4 4 4 4 4 4 4 4 5 5 5 5 5 5 6 6 6 7 7 6 6 5 5 6 7 10 9 8 8 10 10 9 9 9 9 8
4 4 3 3 3 3 3 3 4 4 4 5 4 4 5 5 5 5 5 6 6 6 6 7 7 6 7 7 6 6 6 7 9 11 9 8 10 10 11 11 9 8 8
3 3 3 3 3 3 3 4 4 4 4 4 4 4 5 5 5 5 5 6 6 6 6 7 7 8 8 7 8 7 7 7 8 9 10 8 8 8 10 10 10 8 8
3 3 3 3 3 3 3 4 4 4 4 4 4 4 5 5 5 5 5 6 6 6 6 7 7 7 8 9 8 8 8 8 8 8 9 8 8 8 8 8 9 8 8
2 3 3 3 3 3 3 4 4 4 4 4 4 4 5 4 4 5 6 6 6 7 7 7 7 8 9 9 8 9 9 8 8 8 9 9 8 8 8 8 9 9 9
2 3 3 3 3 3 3 4 4 4 4 4 4 4 5 4 5 7 7 6 6 7 7 7 7 7 8 10 11 11 11 10 10 9 9 10 11 10 9 9 9 10 9
2 3 3 3 3 3 3 3 4 4 4 4 4 4 5 5 7 8 8 7 6 6 7 7 6 7 8 8 10 11 10 11 12 11 11 11 12 11 11 11 10 10 10
3 3 3 3 3 3 3 4 4 4 4 4 5 5 5 6 8 8 9 7 6 7 7 8 8 8 8 10 10 10 10 9 10 9 10 11 11 11 11 11 12 12 11
3 3 3 3 3 3 4 4 4 4 4 5 5 5 6 6 8 9 10 6 6 7 7 7 8 8 10 12 11 10 10 9 10 12 14 14 15 15 13 9 9 8 8
4 4 3 3 4 4 4 4 4 4 5 5 5 5 6 6 8 9 10 5 6 6 6 7 8 10 12 13 10 10 11 10 10 10 10 11 11 11 12 9 8 8 7
3 3 3 3 4 4 4 4 4 4 4 5 5 5 5 6 7 9 10 6 6 7 6 6 6 11 13 14 13 9 11 12 10 9 9 8 8 7 7 7 7 7 7
2 3 3 4 3 3 3 4 4 4 4 4 5 5 4 5 6 7 10 10 9 8 7 6 7 12 14 14 11 11 14 11 7 7 7 7 7 7 7 7 7 7 7
3 3 4 3 3 3 4 4 4 3 3 4 4 5 5 4 5 8 9 10 11 8 7 10 12 13 13 10 10 12 9 6 6 6 7 7 7 7 7 6 6 6 7
4 4 4 4 4 3 3 3 4 4 4 4 4 5 5 5 5 5 5 6 8 8 7 8 10 11 9 9 8 7 5 5 6 6 7 7 6 7 6 6 6 6 6
4 4 4 4 4 4 4 4 5 5 5 5 5 5 6 6 7 10 9 7 7 7 7 6 5 5 5 5 5 5 5 5 5 5 6 6 6 6 6 5 5 5 5
5 5 4 4 3 3 4 4 6 7 9 10 10 9 7 9 12 13 13 13 13 11 7 5 5 5 6 6 6 6 5 5 5 6 6 6 6 6 6 5 5 5 6
6 5 4 4 4 4 4 4 4 4 6 8 9 9 10 11 12 12 12 11 9 8 5 4 5 5 6 6 5 6 6 5 5 5 6 6 6 6 6 6 5 5 5
6 5 5 4 4 4 4 4 4 5 5 5 6 9 10 11 11 11 10 8 5 4 4 5 5 5 5 5 5 6 6 5 5 5 5 5 5 5 5 5 5 5 6
5 4 4 4 4 4 4 4 4 5 5 6 5 6 7 9 10 9 8 4 5 5 4 5 5 5 5 5 5 5 6 6 6 5 5 6 5 5 5 5 5 6 6
5 5 4 4 3 4 4 4 4 5 5 5 6 5 5 5 5 5 4 4 5 5 5 5 5 5 5 5 5 5 5 5 6 5 5 5 5 5 6 6 5 5 5
4 4 5 4 4 4 4 5 5 5 5 6 6 6 8 5 5 6 5 5 5 5 5 5 5 5 5 5 5 5 6 6 5 5 5 5 5 5 5 5 5 5 5
4 4 4 4 4 4 4 4 5 5 6 6 5 6 8 5 5 5 5 5 5 5 5 5 5 5 5 5 5 5 6 6 6 5 5 5 5 5 5 5 4 4 4
4 4 4 4 4 4 4 4 5 5 5 5 5 5 5 5 5 5 6 5 5 5 5 5 5 5 5 5 5 5 6 6 6 6 6 6 5 5 5 5 5 5 5
5 5 5 4 4 4 4 5 5 5 5 5 5 5 5 5 5 6 6 6 6 6 5 5 5 7 8 7 5 5 6 6 6 6 7 6 6 5 4 4 5 5 4
4 4 5 4 4 4 4 5 5 5 5 5 5 5 5 5 6 6 6 6 7 6 7 6 5 6 8 9 8 7 8 9 8 6 5 5 5 5 5 5 4 4 4
4 4 4 4 4 4 5 5 5 5 5 5 5 5 5 5 6 6 6 5 6 6 6 6 7 8 9 8 9 9 9 9 8 7 5 4 5 5 5 4 5 4 4
Wind_Direction
5 358 358 353 356 2 1 354 348 342 340 341 339 340 339 337 336 332 330 325 323 323 322 320 320 318 313 312 306 303 299 291 285 291 295 301 302 300 299 297 296 296 297
352 355 357 352 350 354 352 346 341 338 340 341 339 339 337 335 336 332 328 327 324 324 325 323 320 318 315 313 309 306 301 299 293 294 298 301 300 302 300 297 296 294 295
344 347 351 351 347 350 350 346 345 345 344 343 344 340 335 336 335 334 330 327 324 320 320 319 318 318 315 314 311 308 305 302 297 293 296 300 299 302 301 298 298 296 297
332 335 337 340 342 344 344 343 342 341 341 341 341 333 329 331 331 331 327 323 320 319 318 317 316 314 313 312 310 309 308 306 301 296 294 298 298 304 304 304 303 302 299
315 322 325 331 336 340 341 340 339 339 337 336 332 328 325 324 328 327 324 319 317 315 314 313 312 311 312 309 307 307 306 302 301 300 299 299 301 308 306 306 300 302 297
296 305 316 324 330 333 333 334 332 333 332 331 326 321 321 321 327 324 318 315 314 310 310 308 306 301 305 307 305 304 303 299 300 298 298 299 303 304 304 301 299 299 296
284 296 306 314 319 321 322 320 321 323 323 321 317 314 313 318 321 323 322 314 308 305 304 304 303 305 303 305 305 303 302 300 296 294 293 295 300 304 303 299 295 293 290
274 286 296 298 302 310 312 311 314 316 314 310 310 309 308 312 316 319 318 312 304 301 301 302 302 306 309 309 307 304 302 301 302 299 295 296 298 300 299 296 294 290 286
261 272 280 282 286 295 299 304 310 309 306 305 303 303 303 305 311 315 316 310 302 303 303 302 301 302 307 309 304 301 300 301 305 302 299 298 300 302 302 298 296 294 292
252 264 274 275 275 280 288 295 299 298 296 299 298 299 298 300 306 311 314 304 301 303 302 299 298 301 305 307 303 300 299 302 304 305 302 303 301 300 302 294 291 289 292
252 259 268 270 270 273 280 286 290 293 293 293 294 297 298 298 301 308 312 307 303 302 301 302 304 307 307 309 306 301 300 304 300 298 298 299 301 301 302 300 295 285 284
236 248 258 264 267 269 274 282 284 284 285 288 292 296 297 298 300 306 312 310 308 300 297 298 301 306 308 309 308 307 308 307 298 295 295 298 301 302 303 303 300 292 283
224 241 252 261 265 265 264 269 274 273 274 282 286 290 296 299 301 306 308 309 308 302 294 296 301 306 306 305 305 306 307 302 298 295 295 298 302 302 302 301 303 298 287
222 238 243 247 255 257 259 258 262 264 267 273 281 286 292 295 297 301 302 302 302 300 298 299 301 302 301 301 300 302 299 298 297 293 295 299 304 305 304 306 306 309 300
226 235 239 240 245 251 254 255 260 262 266 275 278 281 286 290 295 303 305 303 302 300 305 301 299 300 297 298 299 300 299 298 296 297 297 299 301 302 304 307 302 301 295
225 232 233 234 238 245 256 269 265 269 276 277 278 283 287 288 298 301 303 305 308 311 311 298 297 296 296 298 299 299 297 296 297 296 294 296 298 300 301 301 298 296 296
225 230 232 233 236 242 250 259 275 284 279 280 282 289 292 298 301 303 306 312 316 318 301 288 289 291 293 295 295 294 295 295 294 289 289 292 294 295 296 298 300 299 298
226 229 230 233 238 243 247 254 261 271 283 287 293 295 299 302 306 310 311 312 306 307 290 286 285 286 287 288 290 291 294 296 293 291 291 290 290 291 291 294 296 298 299
221 223 227 235 239 243 248 253 258 263 269 281 291 298 304 305 307 308 311 296 291 290 289 286 285 286 286 285 286 287 288 288 289 289 287 287 286 286 286 288 290 292 289
222 226 225 230 235 239 243 248 254 259 266 271 277 287 302 303 295 299 297 287 284 284 285 285 286 285 286 283 282 282 283 283 284 282 283 283 284 283 282 283 286 289 288
216 218 219 229 233 236 241 247 253 258 263 269 274 282 292 292 288 290 289 284 282 283 283 284 285 285 282 282 280 278 280 280 281 280 281 282 283 282 281 281 282 282 286
211 214 217 226 232 238 245 250 254 258 263 270 280 287 288 283 280 281 282 282 282 281 281 281 281 280 279 278 278 279 278 278 279 281 282 283 283 282 279 277 278 282 282
209 214 220 228 234 240 246 250 253 256 262 268 274 279 281 278 278 279 282 285 285 283 281 278 279 280 281 279 276 274 274 276 279 281 281 281 281 280 279 277 275 276 277
209 214 220 226 231 237 244 251 253 257 262 267 271 273 275 277 279 281 284 285 284 284 283 279 277 279 284 287 283 278 276 279 281 277 277 279 283 283 282 281 280 277 276
211 216 221 225 230 237 245 251 255 259 262 265 270 273 277 280 281 282 284 284 286 285 286 285 281 281 282 284 285 283 282 283 283 279 274 273 277 280 281 280 277 277 277
214 219 225 228 232 237 242 248 253 259 263 268 270 273 277 280 282 284 285 286 288 289 289 286 285 287 290 287 285 286 285 283 279 273 266 268 272 276 280 278 277 279 280